Dewpoint
21 22 22 22 21 21 20 20 15 16 17 20 24 25 24 26 28 29 28 29 29 30 30 30 30 31 30 31 33 35 38 39 38 36 34 31 29 27 27 26 27 28 29 30
22 23 23 22 23 23 22 21 21 20 19 21 22 25 25 27 29 28 29 30 30 29 29 28 28 29 30 30 31 33 37 39 39 37 35 33 30 29 28 27 27 27 27 28
22 23 22 20 22 22 21 22 22 20 21 23 20 21 24 29 29 29 29 29 29 27 27 28 28 29 29 30 29 30 34 39 39 38 35 34 32 30 28 27 26 26 26 27
21 22 16 22 22 19 21 21 21 21 21 20 20 21 26 30 30 30 29 28 27 27 28 28 28 28 29 29 29 29 31 34 36 37 35 34 32 31 29 28 27 26 27 28
20 20 21 22 18 17 18 18 21 21 21 21 24 30 30 31 30 30 29 27 28 28 28 28 28 28 28 28 29 29 29 31 32 33 33 33 32 31 30 29 28 28 28 27
22 20 17 22 19 22 24 21 24 23 23 28 29 27 28 31 31 30 28 28 28 28 28 27 27 28 28 28 29 28 29 31 33 33 33 32 32 31 30 29 28 28 27 28
22 21 23 25 26 24 21 22 29 28 28 28 28 29 30 31 30 29 28 29 29 28 26 26 28 28 27 27 26 28 30 32 33 33 33 33 33 31 30 28 28 27 26 26
22 21 18 25 23 22 25 28 28 28 28 29 30 31 31 31 30 28 29 27 26 24 24 26 27 27 25 24 26 27 29 29 30 31 32 32 32 31 29 27 26 25 24 24
23 22 25 25 25 25 28 28 26 28 29 31 31 30 30 29 27 29 27 24 22 22 22 23 25 24 23 25 26 27 28 27 28 29 30 31 31 31 29 27 26 25 23 23
24 25 26 27 27 28 29 28 29 31 31 31 30 30 29 28 29 26 23 22 21 21 20 21 22 24 25 26 27 28 28 28 28 29 30 31 31 31 30 28 26 25 24 23
28 28 28 29 30 30 29 31 31 31 31 31 29 28 28 29 25 22 22 21 21 21 20 21 22 24 26 27 29 28 29 29 29 29 29 30 31 31 31 29 29 27 26 25
27 28 29 30 31 31 31 31 31 32 31 29 28 28 29 24 22 22 20 20 20 19 20 21 23 24 26 28 28 28 29 29 30 30 30 30 30 30 31 33 33 33 31 30
30 31 31 31 31 31 31 31 31 31 29 28 28 28 25 24 22 21 21 20 20 19 20 22 23 25 26 25 26 28 28 29 30 30 30 30 30 30 30 31 32 33 34 34
31 31 30 31 31 31 31 30 29 29 28 27 26 26 23 19 19 19 20 20 20 20 21 23 24 24 23 25 25 27 28 30 31 30 30 30 31 31 31 31 31 31 32 33
32 32 31 28 27 27 28 27 25 26 27 24 21 21 21 21 21 21 21 21 21 21 22 23 23 22 23 24 24 26 27 30 30 29 31 32 32 31 31 31 30 31 32 32
29 29 28 26 24 22 22 21 21 23 23 24 23 23 24 24 23 22 22 22 21 19 19 21 23 23 24 24 25 25 28 29 28 30 31 31 31 30 28 27 28 28 30 30
28 24 23 23 22 21 21 21 22 23 22 20 21 23 23 22 23 22 21 21 22 21 20 21 22 24 24 24 25 25 27 26 29 29 30 30 30 30 29 28 28 29 31 32
23 22 22 21 19 19 20 18 18 19 19 18 18 20 21 23 23 23 22 21 21 21 21 22 23 25 25 25 25 25 26 27 29 28 29 29 28 28 29 30 31 31 32 32
29 29 24 23 21 21 22 21 16 17 18 20 21 22 23 24 25 25 23 21 20 21 21 20 21 24 25 25 26 26 27 27 27 28 29 27 27 27 28 30 31 32 31 32
27 26 26 24 24 25 26 27 23 22 23 24 25 24 22 21 21 21 21 20 20 20 21 22 24 24 25 26 27 27 26 27 27 28 28 27 27 26 29 30 32 31 32 32
28 27 26 26 27 28 29 27 24 23 23 23 23 22 22 22 22 22 22 21 22 22 23 24 25 25 25 27 28 28 27 27 27 28 28 28 26 26 28 30 31 31 32 32
26 26 25 23 23 24 25 26 25 24 24 23 23 23 24 24 24 24 24 23 23 24 24 24 25 26 27 28 29 28 28 29 29 29 28 28 26 27 29 31 31 32 32 32
26 25 23 22 21 21 22 22 22 23 23 23 23 24 24 24 24 23 23 24 24 25 25 26 27 28 29 30 30 29 28 28 28 28 28 26 26 28 31 31 31 32 32 32
24 24 24 23 23 23 23 23 23 23 23 23 24 24 24 24 24 25 25 26 27 27 27 27 28 29 30 30 29 29 28 28 28 28 27 27 28 31 31 31 31 32 32 32
23 23 24 24 23 23 23 23 23 24 24 24 24 24 25 25 25 24 24 24 25 27 27 27 28 30 30 29 29 27 27 28 28 27 28 29 30 31 30 31 31 31 32 32
22 22 22 23 22 22 22 23 23 23 24 24 24 25 25 25 25 25 25 26 26 26 27 28 28 28 28 27 28 28 27 27 27 27 28 30 29 29 30 30 30 30 31 31
22 24 24 24 24 24 24 24 24 24 24 24 25 25 25 25 25 26 26 26 26 26 27 27 27 27 27 27 27 27 27 26 27 29 30 29 28 28 28 28 29 30 30 31
Wind_Speed
14 19 18 21 22 19 25 23 15 12 19 11 9 16 22 17 16 18 20 18 17 19 20 20 19 19 21 17 16 15 13 13 16 14 13 13 14 13 12 11 11 11 12 12
13 11 11 19 22 23 28 30 33 32 43 28 23 13 10 13 14 15 14 17 19 18 19 18 19 19 18 19 20 16 15 16 15 13 13 14 15 15 14 14 13 12 13 12
7 9 18 16 13 19 12 13 31 27 34 15 10 7 9 12 8 11 16 17 19 19 19 19 20 20 21 18 18 18 16 15 15 14 14 16 15 15 16 16 14 14 14 13
9 11 6 3 6 10 17 19 26 19 18 12 10 10 10 7 5 11 14 18 18 19 18 19 18 19 18 18 18 18 17 15 15 15 17 16 15 16 17 15 16 16 15 14
5 4 16 12 1 2 5 12 19 29 25 17 8 7 5 4 4 15 17 16 14 15 16 17 18 18 18 19 18 18 17 17 16 15 16 17 18 18 17 15 16 17 15 16
2 5 7 3 2 3 2 16 5 4 6 2 4 14 17 6 12 16 14 13 14 16 15 17 19 17 17 19 18 19 19 20 18 16 15 17 19 19 16 15 18 15 17 16
15 9 13 15 15 4 3 5 4 3 3 7 13 15 8 14 16 13 11 11 14 14 16 18 20 19 21 22 21 19 18 18 19 17 17 17 19 15 17 17 16 17 18 17
7 9 13 11 7 7 5 5 5 9 15 15 13 10 11 15 15 14 13 14 13 15 17 16 16 17 18 20 21 21 20 20 21 21 18 16 18 18 17 16 17 19 18 19
19 14 5 14 9 11 9 10 16 13 15 10 8 11 14 14 12 10 10 13 13 14 18 14 12 10 17 19 19 20 19 19 19 20 19 18 17 19 18 15 16 18 16 18
7 10 24 15 16 14 16 16 17 9 8 7 11 14 16 14 11 9 11 12 13 15 18 20 14 11 11 17 19 19 19 19 18 17 19 17 16 16 16 16 16 17 18 19
20 21 23 22 18 17 15 5 7 10 12 14 12 15 15 12 11 11 12 12 11 14 17 17 16 15 13 16 15 17 16 15 16 16 19 19 17 17 17 18 19 20 19 19
36 24 23 26 22 22 20 18 19 15 14 13 12 14 11 11 12 11 12 14 14 15 15 17 17 18 17 16 17 19 19 16 17 18 19 20 20 22 17 23 28 28 32 27
39 27 21 22 15 22 25 28 20 16 17 14 13 10 8 10 12 14 16 15 15 16 19 19 19 19 17 18 17 17 18 17 15 16 16 18 19 19 24 24 22 24 28 31
30 31 31 25 23 22 16 7 5 7 8 7 8 7 7 9 14 16 18 19 17 18 19 19 20 22 18 17 17 18 19 19 17 16 15 16 18 19 20 23 25 26 21 20
24 18 16 4 7 7 5 6 6 7 9 11 8 8 13 17 19 18 18 16 18 18 20 19 20 24 18 18 19 20 19 16 15 16 15 16 16 16 19 21 23 24 23 20
11 5 2 10 14 16 15 15 14 15 16 15 15 15 15 17 20 22 20 18 18 23 24 21 21 23 19 18 19 19 19 18 19 16 17 17 17 18 18 20 23 24 23 22
7 6 14 14 13 12 13 11 10 11 12 13 17 18 18 20 20 21 24 20 19 24 25 23 24 22 20 20 19 18 17 17 20 18 17 18 21 22 22 22 22 22 22 20
15 11 10 7 9 10 11 15 17 19 18 20 19 18 20 22 24 26 25 21 21 24 26 24 19 18 20 20 19 19 18 18 18 18 18 20 20 21 24 22 23 23 23 22
14 12 15 16 14 14 15 18 18 19 19 20 20 22 22 23 25 26 26 25 26 27 30 22 19 18 18 21 21 18 18 19 19 18 18 22 23 22 22 24 22 21 23 22
15 18 15 16 15 16 20 20 22 20 22 20 20 21 23 25 25 25 25 27 28 30 30 26 24 22 22 21 24 18 19 21 20 20 20 22 23 25 23 24 22 24 23 22
21 21 17 17 19 19 21 21 18 22 24 20 19 24 27 26 26 25 24 24 31 29 23 24 23 20 18 18 18 19 20 20 20 21 22 23 25 25 24 24 23 23 21 20
22 22 23 22 22 23 23 22 22 22 22 23 24 25 24 26 26 25 23 24 25 29 21 20 19 21 19 22 17 19 19 20 20 20 22 23 24 24 26 26 20 20 21 20
21 22 23 22 24 26 22 21 22 20 24 26 25 25 25 24 24 23 27 31 18 19 20 21 22 25 27 23 18 16 17 19 20 21 22 24 25 25 28 19 22 23 21 21
23 23 24 25 24 22 24 28 21 21 22 25 25 26 24 21 23 22 19 25 28 25 22 22 23 27 28 21 19 18 18 20 20 20 22 27 24 25 22 23 22 20 20 19
24 26 25 24 23 23 22 25 20 23 22 22 24 25 21 18 20 26 21 22 25 23 20 24 27 28 22 18 18 19 20 20 21 21 24 23 24 19 22 20 20 19 17 17
24 23 23 24 24 24 22 18 20 22 20 21 21 21 19 17 17 20 21 22 20 21 19 19 18 18 18 18 18 19 19 20 21 23 23 18 19 20 20 19 18 18 17 15
22 21 20 22 23 19 18 19 19 21 21 18 19 23 21 21 19 19 20 20 18 18 19 19 18 19 18 18 19 19 19 19 22 23 15 16 16 16 17 16 15 14 12 11
Wind_Direction
266 271 268 263 251 218 215 217 228 269 248 267 287 289 289 293 302 316 323 332 334 326 324 323 325 325 327 327 324 303 282 267 264 267 271 273 273 271 274 276 274 278 284 285
295 274 268 270 256 238 233 233 238 252 269 270 280 279 266 284 316 325 338 331 326 323 324 323 323 322 325 325 323 320 290 268 266 269 272 272 272 270 272 271 272 274 277 278
272 320 310 283 260 220 213 217 223 239 248 261 273 281 282 304 327 333 330 326 328 329 325 324 323 321 323 325 328 330 315 286 276 270 272 273 271 270 270 270 271 271 272 275
284 329 297 246 284 234 227 239 221 242 251 213 260 281 286 279 325 323 323 329 331 327 327 324 322 326 327 332 338 338 333 316 299 283 275 276 274 269 269 266 267 271 273 273
255 260 288 301 91 213 206 291 222 230 245 241 248 307 278 181 306 330 322 317 316 317 321 328 334 332 333 337 341 341 336 330 324 310 292 281 276 273 268 265 265 263 260 262
240 240 268 282 134 113 99 284 346 238 196 170 20 293 296 291 316 313 313 315 319 327 333 335 335 335 337 338 337 338 331 324 320 316 301 289 283 280 269 260 265 260 264 261
232 258 273 261 257 161 249 291 157 53 330 276 259 250 273 306 305 303 300 308 321 328 330 329 331 336 338 337 336 329 326 317 315 310 306 295 290 282 277 269 267 261 259 258
191 218 271 170 134 201 219 203 234 271 270 267 239 252 281 289 295 301 309 323 331 327 324 323 326 330 330 332 326 327 328 328 325 318 308 299 295 291 280 272 269 268 267 271
201 218 266 196 223 228 226 252 277 276 256 217 244 269 285 285 286 289 304 313 317 314 318 316 319 321 323 321 322 327 328 326 321 317 312 301 296 292 286 273 266 268 260 263
250 244 252 246 257 275 274 272 274 219 211 234 258 263 271 275 269 284 298 304 306 309 314 312 316 307 297 308 316 322 321 319 319 315 313 309 295 286 279 274 266 260 260 260
270 280 282 275 277 296 307 282 232 234 232 240 249 264 264 255 268 284 292 295 293 300 300 301 308 311 310 305 307 313 313 312 320 324 323 313 301 289 284 265 255 263 258 254
268 275 277 285 292 291 289 287 280 254 245 245 250 255 250 259 269 280 287 293 300 303 298 303 308 308 310 312 316 316 316 315 319 320 320 315 314 311 295 276 271 261 256 253
265 278 280 286 298 300 287 286 266 237 237 246 256 247 258 271 288 297 302 301 295 300 305 304 304 299 302 303 304 303 302 301 298 303 303 302 306 307 309 309 297 278 269 260
275 286 289 288 286 290 300 298 292 272 266 266 274 287 274 277 287 297 297 295 291 293 291 290 290 287 288 290 296 295 293 291 287 284 286 292 301 304 306 305 305 303 293 272
268 270 273 298 356 6 349 11 1 341 334 334 325 322 322 314 297 286 287 290 286 289 288 285 280 283 288 295 295 291 290 286 286 295 287 288 292 297 300 300 299 295 298 292
287 254 351 55 50 35 28 18 20 5 350 334 328 314 291 277 286 290 285 285 282 292 291 285 278 282 284 281 280 285 287 285 294 293 291 290 287 284 288 298 301 300 296 291
256 60 59 47 32 21 17 347 317 297 289 288 285 284 285 281 282 277 276 276 270 272 275 274 271 276 278 280 282 284 277 287 288 294 289 290 293 288 288 289 291 290 282 280
92 87 62 18 332 301 295 291 279 271 269 269 271 276 278 280 279 282 284 282 273 269 270 274 269 264 266 270 270 268 271 272 273 276 281 285 287 288 289 286 288 288 288 287
359 336 302 276 275 267 275 297 289 282 277 277 280 276 272 273 274 276 279 280 279 279 282 286 277 277 273 279 274 272 268 270 273 275 276 285 290 286 283 280 282 286 288 287
247 263 273 278 275 265 278 281 277 277 276 279 286 286 285 285 285 285 285 282 280 280 287 296 294 284 280 276 276 278 273 271 273 278 282 285 284 285 280 283 277 285 284 283
272 279 283 285 281 269 262 268 276 279 281 283 278 277 279 283 287 288 288 285 279 283 289 285 277 276 279 275 275 271 268 268 274 279 278 283 286 286 278 276 272 278 275 277
272 274 278 281 281 281 275 272 271 272 277 278 279 280 282 282 285 286 277 266 280 286 290 285 279 275 272 282 273 260 261 267 271 276 278 281 287 285 281 276 268 276 273 269
265 262 265 271 273 273 275 269 270 270 275 276 277 278 275 274 278 279 282 288 290 288 290 285 283 283 285 283 274 269 270 273 274 276 277 289 286 281 281 263 279 274 270 265
270 267 264 264 266 269 269 275 275 271 263 267 269 268 268 274 279 271 265 273 280 283 281 281 284 284 283 285 284 283 282 282 283 282 281 285 280 284 276 285 277 271 270 263
270 268 266 267 265 266 265 269 274 271 270 268 266 267 264 253 239 272 280 278 280 283 279 280 282 284 285 282 280 280 283 283 286 286 287 286 288 290 290 286 283 280 269 265
274 273 270 265 266 272 271 270 266 271 272 271 274 275 275 266 251 254 264 268 274 278 276 276 275 277 278 277 276 279 280 284 286 288 289 288 298 296 294 290 288 286 277 266
278 276 272 273 271 269 265 260 263 266 269 267 268 278 281 280 275 271 273 276 276 273 273 277 277 277 274 273 278 279 286 284 286 288 290 295 296 299 302 303 300 297 290 277